KA2LAC Weather Reports


Display with metric or nautical units.
time (UTC)temp
F
wind
direction
speed
MPH
gust
MPH
rain 1hr
in
rain 24hr
in
rain mn
in
humidity
%
barometer
mb
20260504190506 84 67 8.0 16.0 0.00 0.28 0.00 59 1014.3
20260504190008 85 79 6.0 16.0 0.00 0.28 0.00 59 1014.4
20260504185504 86 84 5.0 12.0 0.00 0.28 0.00 57 1014.4
20260504185003 86 61 6.0 12.0 0.00 0.28 0.00 59 1014.4
20260504184510 85 105 4.0 14.0 0.00 0.28 0.00 59 1014.5
20260504184009 84 109 8.0 14.0 0.00 0.28 0.00 59 1014.6
20260504183504 84 60 8.0 17.0 0.00 0.28 0.00 59 1014.7
20260504183009 84 86 9.0 17.0 0.00 0.28 0.00 58 1014.7
20260504182505 85 109 11.0 17.0 0.00 0.28 0.00 57 1014.7
20260504182006 84 132 7.0 15.0 0.00 0.28 0.00 60 1014.7
20260504181508 84 91 6.0 15.0 0.00 0.28 0.00 59 1014.9
20260504181003 84 68 7.0 14.0 0.00 0.28 0.00 59 1014.9
20260504180503 84 119 7.0 12.0 0.00 0.28 0.00 62 1015.1
20260504180011 84 79 5.0 15.0 0.00 0.28 0.00 61 1015.1
20260504175508 83 91 8.0 15.0 0.00 0.28 0.00 63 1015.1
20260504175006 83 98 8.0 15.0 0.00 0.28 0.00 60 1015.1
20260504174508 83 73 6.0 17.0 0.00 0.28 0.00 62 1015.2
20260504174007 83 88 11.0 17.0 0.00 0.28 0.00 60 1015.3
20260504173504 83 117 7.0 16.0 0.00 0.28 0.00 60 1015.5
20260504173010 84 79 7.0 12.0 0.00 0.28 0.00 60 1015.5
20260504172507 83 50 4.0 13.0 0.00 0.28 0.00 63 1015.5
20260504172008 82 84 7.0 13.0 0.00 0.28 0.00 64 1015.6
20260504171512 82 76 7.0 12.0 0.00 0.28 0.00 64 1015.6
20260504171008 82 5 4.0 14.0 0.00 0.28 0.00 64 1015.7
20260504170506 81 350 4.0 16.0 0.00 0.28 0.00 65 1015.9
20260504151006 77 85 6.0 15.0 0.00 0.29 0.00 72 1016.7
20260504150507 77 94 6.0 17.0 0.00 0.29 0.00 72 1016.7
20260504141008 76 32 10.0 22.0 0.00 0.29 0.00 74 1016.4
20260504140507 76 97 7.0 15.0 0.00 0.29 0.00 74 1016.4
20260504130503 74 74 4.0 11.0 0.00 0.29 0.00 77 1015.9
20260504110507 68 27 3.0 10.0 0.00 0.29 0.00 87 1015.1
20260504100509 68 24 3.0 9.0 0.00 0.29 0.00 90 1014.4
20260504081516 69 33 3.0 6.0 0.00 0.29 0.00 89 1014.7
20260504081008 69 22 2.0 6.0 0.00 0.29 0.00 89 1014.7
20260504080507 69 27 2.0 7.0 0.00 0.29 0.00 89 1014.9
20260504050508 69 351 2.0 9.0 0.00 0.29 0.00 91 1016.0
20260504050022 69 355 3.0 9.0 0.00 0.29 0.00 91 1015.3
20260504045511 69 55 3.0 8.0 0.00 0.29 0.00 91 1015.8
20260504045003 69 35 2.0 4.0 0.00 0.29 0.00 91 1016.5
20260504044505 69 28 1.0 5.0 0.00 0.29 0.00 91 1016.5
20260504044003 69 28 1.0 5.0 0.00 0.29 0.00 91 1016.5
20260504043505 69 12 2.0 5.0 0.00 0.29 0.00 91 1016.5
20260504043008 69 26 0.0 5.0 0.00 0.29 0.00 91 1016.5
20260504042504 69 53 1.0 5.0 0.00 0.29 0.00 91 1016.4
20260504042003 69 33 1.0 5.0 0.00 0.29 0.00 91 1016.4
20260504041515 69 15 1.0 5.0 0.00 0.29 0.00 91 1016.3
20260504041007 69 45 1.0 5.0 0.00 0.29 0.00 91 1016.3
20260504040507 69 73 2.0 4.0 0.00 0.29 0.00 91 1016.3
20260504040019 69 76 1.0 6.0 0.00 0.29 0.00 91 1016.3
20260504035510 69 20 1.0 9.0 0.00 0.29 0.29 91 1016.5
20260504035007 69 63 0.0 9.0 0.00 0.29 0.29 91 1016.5
20260504034524 69 24 4.0 8.0 0.00 0.29 0.29 91 1016.3
20260504034011 69 99 2.0 7.0 0.00 0.30 0.29 91 1016.3
20260504033504 69 22 1.0 6.0 0.00 0.30 0.29 91 1016.4
20260504033009 69 22 1.0 7.0 0.00 0.30 0.29 91 1016.5
20260504032503 69 34 0.0 8.0 0.00 0.30 0.29 91 1016.5
20260504032006 69 28 3.0 10.0 0.00 0.30 0.29 91 1016.3
20260504031513 69 65 5.0 10.0 0.00 0.30 0.29 91 1016.4
20260504031008 69 60 3.0 10.0 0.00 0.30 0.29 91 1016.2
20260504030508 69 75 3.0 10.0 0.00 0.30 0.29 91 1016.4
20260504030015 69 51 4.0 11.0 0.00 0.30 0.29 91 1016.4
20260504025508 69 59 5.0 11.0 0.00 0.30 0.29 92 1016.1
20260504025007 69 105 4.0 9.0 0.00 0.31 0.29 92 1016.4
20260504024522 69 38 2.0 6.0 0.00 0.31 0.29 92 1016.8
20260504024007 69 59 2.0 6.0 0.00 0.31 0.29 92 1016.8
20260504023508 69 44 2.0 5.0 0.00 0.31 0.29 92 1017.0
20260504023022 69 70 2.0 6.0 0.00 0.32 0.29 92 1016.9
20260504022506 69 350 1.0 6.0 0.00 0.32 0.29 92 1016.9
20260504022007 69 53 1.0 3.0 0.00 0.32 0.29 92 1017.0
20260504021510 69 55 0.0 3.0 0.00 0.32 0.29 92 1016.9
20260504021007 69 39 0.0 3.0 0.00 0.32 0.29 92 1017.0
20260504020508 69 63 0.0 4.0 0.00 0.33 0.29 92 1016.9
20260504020016 68 53 1.0 6.0 0.01 0.35 0.29 92 1016.7
20260504015509 68 35 2.0 6.0 0.04 0.35 0.29 92 1016.7
20260504015008 68 92 2.0 7.0 0.16 0.36 0.29 92 1016.6
20260504014515 68 87 3.0 7.0 0.28 0.36 0.29 91 1016.6
20260504014009 68 59 2.0 6.0 0.28 0.36 0.29 91 1016.4
20260504013506 68 88 1.0 6.0 0.28 0.36 0.29 91 1016.5
20260504013032 68 82 2.0 7.0 0.28 0.36 0.29 91 1016.5
20260504012507 68 99 3.0 10.0 0.28 0.36 0.29 91 1016.4
20260504012010 68 59 3.0 10.0 0.28 0.36 0.29 91 1016.3
20260504011522 68 34 4.0 8.0 0.28 0.36 0.29 90 1016.2
20260504011004 68 91 3.0 11.0 0.28 0.37 0.29 90 1016.2
20260504010503 69 67 5.0 12.0 0.28 0.37 0.29 89 1016.2
20260504010012 69 82 4.0 12.0 0.27 0.36 0.28 88 1016.1
20260504005506 69 74 5.0 12.0 0.24 0.35 0.25 87 1016.0
20260504005007 70 85 7.0 16.0 0.12 0.23 0.13 85 1016.1
20260504004516 71 17 4.0 16.0 0.00 0.12 0.01 84 1015.9
20260504004008 71 102 5.0 15.0 0.00 0.12 0.01 83 1015.8
20260504003508 71 57 7.0 15.0 0.00 0.12 0.01 83 1015.7
20260504003030 71 69 5.0 11.0 0.00 0.14 0.01 83 1015.6
20260504002509 71 66 7.0 11.0 0.00 0.14 0.01 83 1015.7
20260504002010 71 59 6.0 13.0 0.00 0.14 0.01 83 1015.6
20260504001525 71 71 5.0 16.0 0.00 0.14 0.01 84 1015.6
20260504001008 71 79 7.0 16.0 0.00 0.14 0.01 83 1015.5
20260504000509 71 96 8.0 13.0 0.00 0.15 0.01 84 1015.5
20260504000019 71 78 6.0 11.0 0.00 0.17 0.01 84 1015.5
20260503235509 71 59 3.0 13.0 0.00 0.20 0.01 84 1015.6
20260503235008 71 80 7.0 13.0 0.00 0.23 0.01 84 1015.4
20260503234514 71 99 6.0 12.0 0.00 0.23 0.01 84 1015.4
20260503234007 71 75 4.0 14.0 0.00 0.23 0.01 85 1015.4
20260503233507 71 76 7.0 14.0 0.00 0.23 0.01 85 1015.4
20260503233018 71 11 6.0 14.0 0.00 0.23 0.01 86 1015.3
20260503232507 71 64 8.0 14.0 0.00 0.23 0.01 86 1015.3
20260503232007 71 5 6.0 13.0 0.00 0.23 0.01 87 1015.3
20260503231524 71 52 4.0 14.0 0.00 0.23 0.01 87 1015.3
20260503231007 71 67 6.0 16.0 0.00 0.23 0.01 86 1015.3
20260503230507 71 360 4.0 16.0 0.00 0.23 0.01 86 1015.2
20260503230026 71 24 7.0 16.0 0.00 0.23 0.01 86 1015.2
20260503225509 71 80 7.0 15.0 0.00 0.23 0.01 86 1015.1
20260503225009 71 346 5.0 14.0 0.00 0.23 0.01 86 1015.0
20260503224514 71 89 5.0 14.0 0.00 0.23 0.01 86 1015.0
20260503224004 71 71 6.0 14.0 0.00 0.24 0.01 86 1015.0
20260503223507 71 20 5.0 13.0 0.00 0.26 0.01 86 1015.0
20260503223018 71 59 5.0 14.0 0.00 0.28 0.01 86 1014.9
20260503222506 72 76 5.0 14.0 0.00 0.38 0.01 86 1014.9
20260503222006 72 46 5.0 13.0 0.00 0.38 0.01 86 1014.8
20260503221522 72 33 7.0 13.0 0.00 0.38 0.01 85 1014.8
20260503221012 72 43 3.0 13.0 0.00 0.38 0.01 85 1014.8
20260503220508 72 30 4.0 13.0 0.00 0.38 0.01 85 1014.9
20260503220026 72 20 6.0 13.0 0.00 0.38 0.01 85 1014.9
20260503215512 72 39 7.0 13.0 0.00 0.38 0.01 84 1015.0
20260503215007 72 349 3.0 11.0 0.00 0.38 0.01 84 1015.0
20260503214527 72 60 5.0 13.0 0.00 0.38 0.01 84 1015.0
20260503214008 73 109 6.0 14.0 0.00 0.38 0.01 84 1015.0
20260503213509 73 119 7.0 14.0 0.00 0.38 0.01 84 1015.2
20260503213015 73 17 4.0 11.0 0.00 0.38 0.01 84 1015.2
20260503212508 73 17 4.0 13.0 0.00 0.38 0.01 84 1015.3
20260503212008 73 94 6.0 13.0 0.00 0.38 0.01 83 1015.3
20260503211518 73 18 4.0 13.0 0.00 0.38 0.01 83 1015.4
20260503211011 73 87 9.0 15.0 0.00 0.38 0.01 83 1015.4
20260503210514 73 76 7.0 15.0 0.00 0.38 0.01 83 1015.4
20260503210022 73 80 5.0 13.0 0.00 0.38 0.01 83 1015.5
20260503205510 73 92 7.0 15.0 0.00 0.38 0.01 82 1015.4
20260503205007 73 63 7.0 15.0 0.00 0.38 0.01 83 1015.4
20260503204528 73 54 4.0 13.0 0.00 0.38 0.01 83 1015.4
20260503204011 73 83 4.0 13.0 0.00 0.38 0.01 83 1015.4
20260503203513 73 49 6.0 14.0 0.00 0.38 0.01 83 1015.5
20260503203038 73 60 5.0 14.0 0.00 0.38 0.01 83 1015.5
20260503202507 73 70 6.0 14.0 0.00 0.38 0.01 82 1015.6
20260503202009 73 82 6.0 12.0 0.00 0.38 0.01 82 1015.6
20260503201516 73 337 3.0 13.0 0.00 0.38 0.01 82 1015.6
20260503201007 73 55 7.0 13.0 0.00 0.38 0.01 81 1015.7
20260503200509 74 330 4.0 10.0 0.00 0.38 0.01 81 1015.7
20260503200005 74 329 4.0 11.0 0.00 0.38 0.01 81 1015.6
20260503195503 74 22 4.0 11.0 0.00 0.38 0.01 82 1015.5
20260503195005 74 19 6.0 11.0 0.00 0.38 0.01 82 1015.6
20260503194510 74 44 5.0 12.0 0.00 0.38 0.01 82 1015.7
20260503194005 74 355 6.0 12.0 0.00 0.38 0.01 81 1015.9
20260503193506 74 14 4.0 12.0 0.00 0.38 0.01 81 1015.9
20260503193012 74 45 4.0 14.0 0.00 0.38 0.01 82 1015.9
20260503192507 74 36 6.0 14.0 0.00 0.38 0.01 81 1016.0
20260503192007 74 53 7.0 13.0 0.00 0.38 0.01 81 1016.0
20260503191515 74 70 6.0 12.0 0.00 0.38 0.01 81 1016.1
20260503191008 74 36 4.0 12.0 0.00 0.38 0.01 81 1016.1